GW1082 Weather Reports


time (UTC)temp
C
wind
direction
speed
KPH
gust
KPH
rain 1hr
cm
rain 24hr
cm
rain mn
cm
humidity
%
barometer
mb
20260504081508 11 259 4.8 12.9 0.00 0.00 0.00 49 1000.0
20260504044535 10 209 0.0 3.2 0.00 0.00 0.00 54 1003.2
20260504043027 10 243 0.0 3.2 0.00 0.00 0.00 54 1003.3
20260504041522 10 238 1.6 6.4 0.00 0.00 0.00 54 1003.6
20260504040022 9 230 1.6 3.2 0.00 0.00 0.00 57 1003.8
20260504034537 8 196 0.0 0.0 0.00 0.00 0.00 57 1003.9
20260504033029 9 196 0.0 3.2 0.00 0.00 0.00 55 1004.3
20260504031530 10 196 0.0 0.0 0.00 0.00 0.00 52 1004.7
20260504030038 11 196 0.0 3.2 0.00 0.00 0.00 51 1004.9
20260504024524 11 196 0.0 0.0 0.00 0.00 0.00 49 1005.1
20260504023027 12 196 1.6 4.8 0.00 0.00 0.00 45 1005.1
20260504021516 13 239 0.0 3.2 0.00 0.00 0.00 43 1005.2
20260504020020 14 239 0.0 0.0 0.00 0.00 0.00 39 1005.4
20260504014535 15 239 0.0 3.2 0.00 0.00 0.00 37 1005.5
20260504013006 16 249 0.0 3.2 0.00 0.00 0.00 36 1005.7
20260504011513 16 268 1.6 4.8 0.00 0.00 0.00 33 1005.7
20260504010021 17 267 1.6 6.4 0.00 0.00 0.00 31 1005.8
20260504004522 18 254 3.2 11.3 0.00 0.00 0.00 30 1005.8
20260504003021 20 263 3.2 9.7 0.00 0.00 0.00 26 1005.9
20260504001509 20 268 4.8 12.9 0.00 0.00 0.00 26 1006.0
20260504000014 20 247 4.8 12.9 0.00 0.00 0.00 26 1006.0
20260503234535 20 274 6.4 11.3 0.00 0.00 0.00 24 1006.2
20260503233024 21 270 6.4 12.9 0.00 0.00 0.00 25 1006.4
20260503231513 21 276 4.8 16.1 0.00 0.00 0.00 25 1006.6
20260503230016 21 289 4.8 12.9 0.00 0.00 0.00 25 1006.9
20260503224516 21 242 4.8 11.3 0.00 0.00 0.00 23 1007.0
20260503223024 21 267 4.8 16.1 0.00 0.00 0.00 24 1007.2
20260503221526 21 359 3.2 11.3 0.00 0.00 0.00 24 1007.3
20260503220012 21 277 6.4 11.3 0.00 0.00 0.00 26 1007.5
20260503214516 21 274 4.8 9.7 0.00 0.00 0.00 27 1007.6
20260503213021 21 279 4.8 12.9 0.00 0.00 0.00 26 1007.8
20260503211524 21 275 4.8 14.5 0.00 0.00 0.00 29 1008.0
20260503210029 21 264 6.4 12.9 0.00 0.00 0.00 30 1008.5
20260503204516 20 266 6.4 11.3 0.00 0.00 0.00 28 1008.7
20260503203023 20 332 6.4 14.5 0.00 0.00 0.00 27 1008.8
20260503201526 20 250 6.4 12.9 0.00 0.00 0.00 27 1009.1
20260503200028 20 267 8.0 22.5 0.00 0.00 0.00 30 1009.2
20260503194514 20 281 6.4 12.9 0.00 0.00 0.00 30 1009.5
20260503193027 19 274 8.0 16.1 0.00 0.00 0.00 29 1009.6
20260503191524 19 352 8.0 16.1 0.00 0.00 0.00 30 1010.0
20260503190027 19 259 6.4 17.7 0.00 0.00 0.00 31 1010.2
20260503184535 19 270 9.7 20.9 0.00 0.00 0.00 32 1010.2
20260503183015 18 314 4.8 16.1 0.00 0.00 0.00 34 1010.5
20260503181522 18 332 6.4 14.5 0.00 0.00 0.00 34 1010.8
20260503180025 18 337 8.0 20.9 0.00 0.00 0.00 36 1010.9
20260503174528 18 342 6.4 14.5 0.00 0.00 0.00 38 1011.1
20260503173039 18 28 9.7 27.4 0.00 0.00 0.00 37 1011.2
20260503171520 17 330 9.7 25.7 0.00 0.00 0.00 35 1011.4